GFSNIL_sfc_rhum_132.txt.gz
RH
85 91 88 88 84 87 93 92 96 97 96 95 95 96 95 96 96 96 96 94 94 92
95 93 93 90 90 86 84 90 94 94 97 97 97 97 97 97 97 97 96 96 94 94
94 95 94 95 94 92 92 95 97 97 97 98 97 97 98 98 97 97 97 97 97 95
98 98 98 98 98 97 96 96 97 97 97 98 98 98 98 98 98 98 97 98 97 96
97 99 99 98 98 98 97 96 97 97 97 97 98 98 98 98 98 98 98 98 98 97
96 97 99 99 98 98 97 97 97 96 96 97 97 98 97 96 96 96 96 96 94 90
94 94 95 98 99 99 98 98 98 97 96 96 96 96 97 97 98 98 98 98 98 98
87 87 88 91 95 98 99 99 98 99 99 98 98 99 98 98 98 98 98 98 97 96
84 83 88 89 90 94 97 98 98 98 98 99 99 100 100 99 98 98 98 99 97 97
85 85 86 87 87 93 95 96 99 98 98 98 98 100 100 100 98 99 99 98 98 99
85 85 85 85 90 91 94 96 97 99 99 98 98 100 100 100 99 99 99 99 99 99
87 86 87 90 92 92 94 94 96 96 97 99 99 99 100 100 99 100 100 99 99 100
86 87 90 94 93 93 92 92 92 94 96 96 97 98 98 99 99 100 100 100 100 99
86 88 90 93 91 92 94 93 96 98 98 96 98 97 98 100 99 99 99 99 99 100

GFSNIL_sfc_rhum_138.txt.gz
RH
52 47 47 49 53 63 72 79 83 87 85 83 82 84 85 83 84 76 76 72 68 65
51 51 50 52 56 59 65 75 83 87 86 87 85 85 87 85 86 82 84 81 77 70
51 55 54 57 62 64 66 72 84 90 89 90 86 86 90 88 84 85 89 88 80 77
66 62 59 66 69 70 75 76 82 86 89 91 90 90 92 90 80 83 87 90 89 85
93 93 94 81 74 76 75 84 90 92 93 93 92 93 94 90 83 84 91 92 92 89
94 93 95 96 96 94 93 95 94 96 96 95 95 96 95 89 87 91 92 92 94 90
92 95 90 90 94 96 88 89 87 82 78 91 94 95 95 93 88 89 93 93 94 92
86 85 87 94 92 91 93 88 81 84 88 93 94 93 98 96 89 90 94 93 90 85
88 86 89 90 93 94 93 93 98 98 96 97 98 100 100 100 96 86 84 88 89 93
90 94 92 92 91 94 96 93 95 95 98 98 96 100 100 100 96 98 92 86 88 90
84 87 85 87 91 92 93 95 95 94 96 96 92 98 99 100 98 95 94 86 82 83
76 81 85 89 90 91 91 94 93 92 90 94 94 97 98 100 98 94 93 90 93 91
74 77 83 85 86 88 87 93 90 89 95 92 94 95 96 96 98 100 100 100 100 99
73 75 78 81 81 81 82 84 90 92 91 91 95 89 94 97 99 100 100 100 100 99

GFSNIL_sfc_rhum_141.txt.gz
RH
32 26 43 60 66 76 80 76 78 82 78 72 72 74 74 75 72 73 73 72 66 58
32 32 45 59 63 63 58 61 79 84 83 80 76 77 78 79 80 76 79 77 75 66
30 36 51 59 75 73 66 69 80 84 87 85 83 81 82 84 82 83 79 80 79 75
86 87 59 63 64 87 75 70 79 81 89 90 88 86 86 86 83 83 80 78 79 76
90 91 93 95 84 68 69 75 80 80 85 90 90 90 90 88 85 85 82 86 85 79
90 92 94 95 96 94 76 66 69 73 86 91 91 90 90 89 87 84 85 85 88 83
90 91 92 92 93 95 96 96 95 95 94 95 95 94 93 92 91 87 85 86 88 89
85 84 84 86 90 92 94 95 95 88 96 96 96 94 94 93 93 91 90 95 92 94
81 83 86 85 88 90 91 95 94 96 86 87 92 98 100 98 93 94 92 98 98 96
83 83 87 82 86 90 94 93 96 96 96 96 93 98 99 100 89 92 93 95 98 100
97 83 84 88 92 89 91 94 95 96 95 92 88 97 98 100 99 98 99 98 99 99
78 84 94 93 94 92 93 93 94 94 93 95 90 96 97 98 99 100 99 98 99 99
74 76 82 85 92 94 93 93 92 96 98 96 94 98 97 98 99 99 99 99 100 99
68 72 78 81 82 86 89 96 96 97 94 94 96 93 96 96 98 100 99 99 99 99

GFSNIL_sfc_rhum_147.txt.gz
RH
75 82 83 80 83 86 77 74 76 86 78 90 79 89 86 84 81 76 78 83 77 77
77 81 86 85 91 78 72 70 73 88 83 77 66 78 89 88 84 80 81 86 83 78
82 80 81 83 87 91 92 79 94 91 94 88 74 92 94 92 85 85 83 87 85 81
86 87 85 87 90 92 96 86 82 82 89 88 91 89 91 96 91 89 86 85 89 84
87 89 89 90 90 91 94 95 86 85 80 84 77 81 91 92 90 87 90 90 90 85
87 88 91 92 91 91 90 92 93 96 95 91 85 79 81 90 94 88 86 90 89 89
84 86 89 91 93 93 91 91 92 94 94 94 82 84 85 88 91 95 89 87 91 89
80 79 83 86 90 92 93 94 92 94 94 93 90 88 97 97 87 96 94 94 88 89
78 77 83 85 87 89 90 91 93 93 93 95 90 96 98 99 97 95 94 97 94 92
78 80 82 82 87 90 92 90 93 92 92 95 93 95 96 98 97 98 96 94 95 94
82 81 81 83 88 92 91 92 92 93 93 93 90 96 96 98 99 98 98 98 99 98
82 80 86 88 90 91 94 92 92 92 92 94 93 95 96 98 99 98 99 97 99 100
84 78 83 86 90 89 91 91 91 93 93 91 94 93 95 98 99 99 99 98 99 99
81 83 79 82 82 84 89 90 90 95 93 92 96 96 96 97 96 98 98 98 98 99

GFSNIL_sfc_rhum_150.txt.gz
RH
76 78 78 80 82 84 88 89 82 87 83 76 74 87 84 91 91 91 90 85 84 77
80 82 86 86 87 88 84 83 91 90 85 76 88 82 87 87 85 91 91 89 87 81
84 79 86 88 89 88 89 86 92 87 80 90 92 84 83 80 81 87 92 90 90 84
83 84 85 90 91 91 90 89 90 91 93 92 90 87 86 79 77 90 95 91 88 87
81 81 84 91 88 91 91 90 90 90 89 95 91 82 83 84 76 91 94 92 90 85
83 83 85 86 88 88 92 89 90 89 94 89 89 92 87 83 84 78 86 89 87 83
81 82 83 86 86 90 90 91 92 92 92 92 92 87 88 87 88 85 84 84 83 87
78 78 79 82 85 86 89 91 90 91 92 92 90 89 95 88 89 86 87 83 87 90
75 76 79 82 83 85 88 89 89 91 92 94 88 97 97 98 97 87 86 82 87 85
75 79 79 79 81 86 91 89 91 92 92 92 92 100 97 98 96 96 89 87 91 97
84 81 78 80 84 87 94 93 91 91 92 93 88 97 97 98 99 99 99 98 98 96
84 84 84 84 87 87 90 94 95 89 91 93 93 95 96 98 98 97 98 98 98 100
86 87 85 84 84 86 86 87 85 89 92 91 94 92 95 95 95 98 99 99 98 98
86 88 85 84 81 81 85 87 88 88 88 90 95 94 94 95 95 98 98 98 98 98